Location: Home
(42.5358°N, 72.7383°W)
Time: 18:24:53
(UTC-04:00)

Explorer 11/Cluster Stage 4 - Pass Details

Date: 04 August 2024
Orbit: 464 x 1208 km, 28.8° (Epoch: 19 September)

Event Time Altitude Azimuth Distance (km) Brightness Sun altitude
Rises 04:58:20 0° 253° (WSW) 4,084 - -8.7°
Exits shadow 05:01:28 - 243° (WSW) 3,198 9.0 -8.2°
Reaches altitude 10° 05:01:40 10° 242° (WSW) 3,144 9.0 -8.1°
Maximum altitude 05:08:04 27° 189° (S) 2,107 8.4 -7.1°
Drops below altitude 10° 05:14:12 10° 135° (SE) 3,005 9.8 -6.2°
Sets 05:17:20 0° 124° (SE) 3,875 10.5 -5.7°
